This is the latest recevied weather packets stored in our database for station/object PP5EO-1. If no packets are shown the sender has not sent any weather packets the latest 1 day(s).
| Time | Temp. | Humidity | Pressure | Rain* | Wind** | Luminosity | Snow |
|---|---|---|---|---|---|---|---|
| 1778073765 | 22.78° C | 88% | 1020 hPa | - | - | - | - |
| 1778069005 | 22.22° C | 92% | 1020.1 hPa | - | - | - | - |
| 1778066030 | 20.56° C | 100% | 1019.8 hPa | - | - | - | - |
| 1778064840 | 20.56° C | 100% | 1019.5 hPa | - | - | - | - |
| 1778061270 | 20° C | 100% | 1018.9 hPa | - | - | - | - |
| 1778060675 | 20° C | 100% | 1018.9 hPa | - | - | - | - |
| 1778060081 | 20° C | 100% | 1018.8 hPa | - | - | - | - |
| 1778059485 | 20° C | 100% | 1018.6 hPa | - | - | - | - |
| 1778057105 | 20° C | 100% | 1018.3 hPa | - | - | - | - |
| 1778056510 | 20° C | 100% | 1018.2 hPa | - | - | - | - |
| 1778055323 | 20° C | 100% | 1018 hPa | - | - | - | - |
| 1778054725 | 19.44° C | 100% | 1018 hPa | - | - | - | - |
| 1778054130 | 19.44° C | 100% | 1018 hPa | - | - | - | - |
| 1778053217 | 19.44° C | 100% | 1018.1 hPa | - | - | - | - |
| 1778052027 | 20° C | 100% | 1017.7 hPa | - | - | - | - |
| 1778051433 | 20° C | 100% | 1017.6 hPa | - | - | - | - |
| 1778050242 | 19.44° C | 100% | 1017.2 hPa | - | - | - | - |
| 1778049655 | 19.44° C | 100% | 1017.3 hPa | - | - | - | - |
| 1778049052 | 19.44° C | 100% | 1017.3 hPa | - | - | - | - |
| 1778048457 | 19.44° C | 100% | 1017.2 hPa | - | - | - | - |
| 1778046915 | 19.44° C | 100% | 1017.5 hPa | - | - | - | - |
| 1778043384 | 19.44° C | 100% | 1017.7 hPa | - | - | - | - |
| 1778042194 | 19.44° C | 100% | 1017.8 hPa | - | - | - | - |
| 1778041599 | 18.89° C | 100% | 1017.8 hPa | - | - | - | - |
| 1778041004 | 18.89° C | 100% | 1017.7 hPa | - | - | - | - |
* Rain since midnight (hover to see other rain measurements)
** Current wind speed in m/s (hover to see current wind gust speed)